Regional Weather Roundup
Issued by NWS

Home | Current Version | Previous Version | Graphics & Text | Print | Product List | Glossary On
Versions: 1 2 3 4 5 6 7 8 9 10 11 12 13 14 15 16 17 18 19 20 21 22 23 24 25 26 27 28 29 30 31 32 33 34 35 36 37 38 39 40 41 42 43 44 45 46 47 48 49 50
000
ASUS45 KCYS 051310
RWRWY

WYOMING REGIONAL WEATHER ROUNDUP
NATIONAL WEATHER SERVICE CHEYENNE WY
600 AM MST MON DEC 05 2016

NOTE:  "FAIR" INDICATES FEW OR NO CLOUDS BELOW 12,000 FEET
WITH NO SIGNIFICANT WEATHER AND/OR OBSTRUCTIONS TO VISIBILITY.

WYZ001-051400-
YELLOWSTONE NATIONAL PARK

CITY           SKY/WX    TMP DP  RH WIND       PRES   REMARKS
LK YELLOWSTONE   N/A      7  -2  66 W8G18     29.65R WCI  -6
W YELLOWSTONE  NOT AVBL

$$
WYZ002>013-054>058-071-098>099-051400-
NORTHERN WYOMING

CITY           SKY/WX    TMP DP  RH WIND       PRES   REMARKS
JACKSON        MOCLDY    16   7  67 NW10      29.75R WCI   3
CODY           LGT SNOW  20  18  92 N15G22    29.67R FOG     WCI   6
GREYBULL       LGT SNOW  27  18  69 NW21G36   29.67R WCI  13
WORLAND        CLOUDY    26  20  77 NW22G33   29.63R WCI  12
SHERIDAN       SNOW      25  22  88 NW25G32   29.66R VSB 1/2 WCI   9
BUFFALO        SNOW      26  22  84 N22G29    29.58R VSB 1/2 WCI  12
GILLETTE       LGT SNOW  25  24  96 N16       29.59R FOG     WCI  12
HULETT         LGT SNOW  28  27  93 N10       29.58R WCI  19
NEWCASTLE      PTSUNNY   30  30 100 NW21      29.52R WCI  17

$$
WYZ014>020-022>026-101>103-051400-
CENTRAL WYOMING

CITY           SKY/WX    TMP DP  RH WIND       PRES   REMARKS
BIG PINEY      FAIR      14  -1  51 NW18G30   29.71R WCI  -3
PINEDALE       FAIR      10   3  72 NW8       29.69S WCI  -1
DUBOIS         LGT SNOW  16  10  79 MISG      29.58R
LANDER         FAIR      28  15  58 SW10      29.56R WCI  19
RIVERTON       MOCLDY    28  24  85 E7        29.56R WCI  21
CASPER         SNOW      26  24  92 N14       29.55R VSB 1/2 WCI  14
DOUGLAS        LGT SNOW  29  25  85 NE10      29.54R FOG     WCI  20

$$
WYZ021-027>030-104>119-051400-
SOUTHERN WYOMING

CITY           SKY/WX    TMP DP  RH WIND       PRES   REMARKS
EVANSTON       CLOUDY    19  10  68 NW12      29.82R WCI   7
FORT BRIDGER   CLOUDY    21  13  71 W21G31    29.80S WCI   5
ROCK SPRINGS   LGT SNOW  20  15  81 W38G49    29.72R WCI  -1
DIXON          CLOUDY    31  15  50 SW16G24   29.68F WCI  20
RAWLINS        CLOUDY    31  20  63 W18G24    29.58F WCI  19
SARATOGA       FLURRIES  28  21  74 SW16G22   29.62F WCI  17
LARAMIE        MOCLDY    29  20  69 SW22      29.58F WCI  15
CHEYENNE       MOCLDY    39  19  44 W25G33    29.57F WCI  28
TORRINGTON     FAIR      42  22  44 NW14      29.52F
PINE BLUFFS    FAIR      27  19  74 S9        29.59S WCI  17

$$



USA.gov is the U.S. government's official web portal to all federal, state and local government web resources and services.